Flag for U.S.A. Weather past 2 weeks in Newark, New Jersey, U.S.A.

Now
79 °F

Scattered clouds.


Feels Like: 80 °F
Forecast: 65 / 82 °F
Wind: 13 mph from Southwest

Location: Newark International Airport

Current Time: Jul 31, 2014 at 11:40:43 AM

Latest Report: Jul 31, 2014 at 10:51 AM


Visibility: 10 mi

Pressure: 30.09 "Hg

Humidity: 50%

Dew point: 59 °F

Location of NewarkLocation

Historic Weather in Newark — Graph

°F

Newark temperature yesterday

Maximum temperature yesterday: 81 °F (at 2:51 PM)
Minimum temperature yesterday: 64 °F (at 4:51 AM)
Average temperature yesterday: 73 °F

Past Weeks' High & Low Weather Summary

 TemperatureHumidityPressure
High92 °F (Jul 23, 5:51 PM)94% (Jul 28, 1:51 AM)30.24 "Hg (Jul 28, 1:51 AM)
Low64 °F (Jul 29, 5:51 AM)31% (Jul 30, 1:51 PM)29.52 "Hg (Jul 28, 1:51 PM)
Average75 °F61%29.97 "Hg
* Reported Jul 16 9:51 AM — Jul 31 9:51 AM, Newark, Weather by CustomWeather, © 2014

Note: Actual official high and low records may vary slightly from our data, if they occured in-between our weather recording intervals... More about our weather records

Advertising

Newark weather history for previous 24 hours

 ConditionsComfort  
Time TempWeatherWind HumidityBarometerVisibility
9:51 AM
Jul 31
74 °FPartly sunny.9 mph57%30.10 "Hg10 mi
8:51 AM70 °FLight rain. Partly sunny.5 mph66%30.11 "Hg10 mi
7:51 AM69 °FPartly sunny.7 mph68%30.10 "Hg10 mi
6:51 AM65 °FPartly cloudy.3 mph76%30.09 "Hg10 mi
5:51 AM65 °FPassing clouds.No wind73%30.08 "Hg10 mi
4:51 AM64 °FPassing clouds.5 mph73%30.06 "Hg10 mi
3:51 AM65 °FPassing clouds.6 mph73%30.06 "Hg10 mi
2:51 AM64 °FPassing clouds.5 mph73%30.06 "Hg10 mi
1:51 AM68 °FPassing clouds.6 mph65%30.05 "Hg10 mi
12:51 AM67 °FPassing clouds.3 mph68%30.05 "Hg10 mi
11:51 PM
Jul 30
70 °FPassing clouds.3 mph68%30.04 "Hg10 mi
10:51 PM71 °FPassing clouds.6 mph68%30.04 "Hg10 mi
9:51 PM73 °FPassing clouds.7 mph62%30.04 "Hg10 mi
8:51 PM75 °FScattered clouds.8 mph43%30.03 "Hg10 mi
7:51 PM77 °FPassing clouds.10 mph39%30.01 "Hg10 mi
6:51 PM79 °FScattered clouds.9 mph36%30.00 "Hg10 mi
5:51 PM79 °FScattered clouds.12 mph36%29.99 "Hg10 mi
4:51 PM81 °FPartly sunny.9 mph33%30.00 "Hg10 mi
3:51 PM77 °FPartly sunny.5 mph39%29.99 "Hg10 mi
2:51 PM81 °FScattered clouds.13 mph32%30.00 "Hg10 mi
1:51 PM80 °FScattered clouds.10 mph31%30.00 "Hg10 mi
12:51 PM79 °FScattered clouds.6 mph34%30.01 "Hg10 mi
11:51 AM78 °FPassing clouds.9 mph33%30.02 "Hg10 mi
Weather by CustomWeather, © 2014

See weather overviewHow to use our weather pages